User: anonymous   Login
Location: Newark
(42.9277°N, 71.8621°W)
Time: 04:25:23
(UTC+00:00)
Language:

Envisat - Orbit

View from above orbital plane
View from above orbital plane
View from above satellite
View from above satellite

Ground track
Ground track

The orbit data is extracted from the following two-line orbital elements,

1 27386U 02009A   21268.73339603  .00000057  00000-0  32334-4 0  9991
2 27386  98.1572 257.7056 0001214  85.9887  87.2249 14.38043493 25485
Epoch (UTC): 25 September 2021 17:36:05
Eccentricity: 0.0001214
inclination: 98.1572°
perigee height: 764 km
apogee height: 766 km
right ascension of ascending node: 257.7056°
argument of perigee: 85.9887°
revolutions per day: 14.38043493
mean anomaly at epoch: 87.2249°
orbit number at epoch: 2548

The dashed part of the orbit path shows where the satellite is in the earth's shadow,  

DLR